Jefferson City, MO

5:17 PM CDT on July 25, 2017 (GMT -0500)
Jefferson City Memorial

Weather History for KJEF - October, 2013

Change the Weather History Date:

Wednesday, October 23, 2013

  Actual Average Record
Temperature  
Mean Temperature 42 °F -  
Max Temperature 51 °F 67 °F 91 °F (1939)
Min Temperature 33 °F 41 °F 21 °F (1937)
Degree Days  
Heating Degree Days 23    
Moisture  
Dew Point 30 °F    
Average Humidity 62    
Maximum Humidity 89    
Minimum Humidity 35    
Precipitation  
Precipitation 0.00 in - - ()
Sea Level Pressure  
Sea Level Pressure 30.10 in    
Wind  
Wind Speed 6 mph (NW)    
Max Wind Speed 12 mph    
Max Gust Speed 21 mph    
Visibility 10 miles    
Events      
Averages and records for this station are not official NWS values.
T = Trace of Precipitation, MM = Missing Value Source: NWS Daily Summary

Daily Weather History Graph

Daily Weather History Graph

Search for Another Location

Airport or City:

Trip Planner

Search our weather history database for the weather conditions in past years. The results will help you decide how hot, cold, wet, or windy it might be!

Date:

Astronomy

Oct. 23, 2013 Rise Set
Actual Time 7:26 AM CDT 6:19 PM CDT
Civil Twilight 6:59 AM CDT 6:46 PM CDT
Nautical Twilight 6:28 AM CDT 7:17 PM CDT
Astronomical Twilight 5:57 AM CDT 7:47 PM CDT
Moon 9:52 PM CDT (10/23) 11:41 AM CDT (10/23)
Length of Visible Light 11h 47m
Length of Day
10h 53m
Waning Gibbous, 79% of the Moon is Illuminated
Oct 23
Waning Gibbous
Oct 26
Last Quarter
Nov 3
New
Nov 9
First Quarter
Nov 17
Full

Hourly Weather History & Observations

Time (CDT) Temp. Windchill Dew Point Humidity Pressure Visibility Wind Dir Wind Speed Gust Speed Precip Events Conditions
12:53 AM 45.0 °F 39.3 °F 34.0 °F 65% 30.03 in 10.0 mi NW 11.5 mph - N/A   Overcast
1:10 AM 44.6 °F 39.2 °F 33.8 °F 66% 30.06 in 10.0 mi NNW 10.4 mph 20.7 mph N/A   Overcast
1:53 AM 43.0 °F 38.8 °F 33.1 °F 68% 30.05 in 10.0 mi NW 6.9 mph - N/A   Overcast
2:15 AM 42.8 °F 38.6 °F 33.8 °F 70% 30.08 in 10.0 mi NW 6.9 mph - N/A   Overcast
2:53 AM 39.9 °F 35.1 °F 32.0 °F 73% 30.06 in 10.0 mi NW 6.9 mph - N/A   Partly Cloudy
3:53 AM 37.0 °F 34.5 °F 30.9 °F 79% 30.06 in 10.0 mi NW 3.5 mph - N/A   Clear
4:53 AM 36.0 °F 33.3 °F 30.9 °F 82% 30.06 in 10.0 mi NW 3.5 mph - N/A   Clear
5:53 AM 34.0 °F 31.0 °F 30.9 °F 89% 30.09 in 10.0 mi WNW 3.5 mph - N/A   Clear
6:53 AM 34.0 °F 31.0 °F 30.0 °F 85% 30.12 in 10.0 mi NW 3.5 mph - N/A   Clear
7:53 AM 33.1 °F - 30.0 °F 89% 30.12 in 10.0 mi Calm Calm - N/A   Clear
8:53 AM 36.0 °F 33.3 °F 32.0 °F 86% 30.15 in 10.0 mi West 3.5 mph - N/A   Clear
9:53 AM 41.0 °F 37.1 °F 30.9 °F 67% 30.14 in 10.0 mi Variable 5.8 mph - N/A   Clear
10:53 AM 43.0 °F 39.5 °F 26.1 °F 51% 30.15 in 10.0 mi WNW 5.8 mph - N/A   Clear
11:53 AM 46.0 °F 43.1 °F 24.1 °F 42% 30.14 in 10.0 mi Variable 5.8 mph - N/A   Clear
12:53 PM 48.0 °F - 23.0 °F 37% 30.13 in 10.0 mi NW 10.4 mph - N/A   Partly Cloudy
1:53 PM 48.9 °F - 24.1 °F 38% 30.11 in 10.0 mi NNW 8.1 mph - N/A   Mostly Cloudy
2:53 PM 51.1 °F - 24.1 °F 35% 30.08 in 10.0 mi Variable 3.5 mph - N/A   Mostly Cloudy
3:53 PM 48.9 °F - 25.0 °F 39% 30.06 in 10.0 mi SSE 3.5 mph - N/A   Overcast
4:53 PM 50.0 °F - 25.0 °F 38% 30.06 in 10.0 mi West 3.5 mph - N/A   Overcast
5:53 PM 48.9 °F - 26.1 °F 41% 30.06 in 10.0 mi NNW 4.6 mph - N/A   Overcast
6:53 PM 46.9 °F - 28.0 °F 48% 30.08 in 10.0 mi NNE 6.9 mph - N/A   Overcast
7:53 PM 44.1 °F 40.1 °F 30.9 °F 60% 30.12 in 10.0 mi North 6.9 mph 18.4 mph N/A   Overcast
8:53 PM 44.1 °F - 30.9 °F 60% 30.13 in 10.0 mi Calm Calm - N/A   Overcast
9:53 PM 43.0 °F - 32.0 °F 65% 30.14 in 10.0 mi Calm Calm - N/A   Overcast
10:53 PM 42.1 °F - 33.1 °F 70% 30.13 in 10.0 mi Calm Calm - N/A   Overcast
11:53 PM 42.1 °F - 34.0 °F 73% 30.13 in 10.0 mi Calm Calm - N/A   Overcast